Time,TemperatureF,DewpointF,PressureIn,WindDirection,WindDirectionDegrees,WindSpeedMPH,WindSpeedGustMPH,Humidity,HourlyPrecipIn,Conditions,Clouds,dailyrainin,SoftwareType,DateUTC
2013-04-08 00:00:00,32.9,29.5,30.03,West,275,4.0,6.0,87,0.00,,---,0.52,VWS V14.01,2013-04-08 04:00:00,
2013-04-08 00:01:00,32.9,29.5,30.03,West,275,5.0,6.0,87,0.00,,---,0.52,VWS V14.01,2013-04-08 04:01:00,
2013-04-08 00:06:00,32.9,29.5,30.03,West,280,6.0,6.0,87,0.00,,---,0.00,VWS V14.01,2013-04-08 04:06:00,
2013-04-08 00:11:00,33.0,29.6,30.03,WNW,287,4.0,7.0,87,0.00,,---,0.00,VWS V14.01,2013-04-08 04:11:00,
2013-04-08 00:17:00,32.9,29.5,30.04,WNW,285,4.0,7.0,87,0.00,,---,0.00,VWS V14.01,2013-04-08 04:17:00,
2013-04-08 00:22:00,32.9,29.5,30.03,WNW,285,3.0,7.0,87,0.00,,---,0.00,VWS V14.01,2013-04-08 04:22:00,
2013-04-08 00:27:00,32.9,29.5,30.03,WNW,285,3.0,7.0,87,0.00,,---,0.00,VWS V14.01,2013-04-08 04:27:00,
2013-04-08 00:30:00,32.9,29.5,30.03,WNW,285,3.0,7.0,87,0.00,,---,0.00,VWS V15.00,2013-04-08 04:30:00,
2013-04-08 00:32:00,32.9,29.5,30.03,WNW,285,4.0,4.0,87,0.00,,---,0.00,VWS V14.01,2013-04-08 04:32:00,
2013-04-08 00:37:00,32.9,29.5,30.04,WNW,285,3.0,5.0,87,0.00,,---,0.00,VWS V14.01,2013-04-08 04:37:00,
2013-04-08 00:42:00,32.9,29.5,30.04,WNW,285,3.0,5.0,87,0.00,,---,0.00,VWS V14.01,2013-04-08 04:42:00,
2013-04-08 00:47:00,32.8,29.4,30.04,WNW,285,2.0,5.0,87,0.00,,---,0.00,VWS V14.01,2013-04-08 04:47:00,
2013-04-08 00:52:00,32.8,29.4,30.04,WNW,285,4.0,5.0,87,0.00,,---,0.00,VWS V14.01,2013-04-08 04:52:00,
2013-04-08 00:57:00,32.8,29.4,30.04,WNW,285,2.0,5.0,87,0.00,,---,0.00,VWS V14.01,2013-04-08 04:57:00,
2013-04-08 01:00:00,32.8,29.4,30.04,WNW,285,1.0,5.0,87,0.00,,---,0.00,VWS V15.00,2013-04-08 05:00:00,
2013-04-08 01:02:00,32.8,29.4,30.04,WNW,285,1.0,2.0,87,0.00,,---,0.00,VWS V14.01,2013-04-08 05:02:00,
2013-04-08 01:07:00,32.8,29.4,30.03,WNW,285,2.0,2.0,87,0.00,,---,0.00,VWS V14.01,2013-04-08 05:07:00,
2013-04-08 01:12:00,32.7,29.5,30.03,WNW,285,0.0,2.0,88,0.00,,---,0.00,VWS V14.01,2013-04-08 05:12:00,
2013-04-08 01:17:00,32.6,29.5,30.03,WNW,285,0.0,2.0,88,0.00,,---,0.00,VWS V14.01,2013-04-08 05:17:00,
2013-04-08 01:22:00,32.6,29.2,30.03,WNW,285,0.0,2.0,87,0.00,,---,0.00,VWS V14.01,2013-04-08 05:22:00,
2013-04-08 01:27:00,32.6,29.2,30.04,WNW,285,2.0,2.0,87,0.00,,---,0.00,VWS V14.01,2013-04-08 05:27:00,
2013-04-08 01:30:00,32.7,29.3,30.04,WSW,250,4.0,5.0,87,0.00,,---,0.00,VWS V15.00,2013-04-08 05:30:00,
2013-04-08 01:32:00,32.6,29.2,30.04,WSW,250,4.0,4.0,87,0.00,,---,0.00,VWS V14.01,2013-04-08 05:32:00,
2013-04-08 01:37:00,32.6,29.2,30.04,WSW,250,3.0,4.0,87,0.00,,---,0.00,VWS V14.01,2013-04-08 05:37:00,
2013-04-08 01:42:00,32.6,29.5,30.04,WSW,250,2.0,4.0,88,0.00,,---,0.00,VWS V14.01,2013-04-08 05:42:00,
2013-04-08 01:47:00,32.5,29.1,30.04,WSW,250,2.0,4.0,87,0.00,,---,0.00,VWS V14.01,2013-04-08 05:47:00,
2013-04-08 01:52:00,32.5,29.1,30.04,WSW,250,3.0,4.0,87,0.00,,---,0.00,VWS V14.01,2013-04-08 05:52:00,
2013-04-08 01:57:00,32.5,29.1,30.03,WSW,250,1.0,4.0,87,0.00,,---,0.00,VWS V14.01,2013-04-08 05:57:00,
2013-04-08 02:00:00,32.5,29.1,30.03,WSW,250,0.0,4.0,87,0.00,,---,0.00,VWS V15.00,2013-04-08 06:00:00,
2013-04-08 02:02:00,32.5,29.1,30.02,WSW,250,0.0,0.0,87,0.00,,---,0.00,VWS V14.01,2013-04-08 06:02:00,
2013-04-08 02:07:00,32.5,29.1,30.02,WSW,250,2.0,2.0,87,0.00,,---,0.00,VWS V14.01,2013-04-08 06:07:00,
2013-04-08 02:12:00,32.4,29.2,30.02,WSW,250,1.0,5.0,88,0.00,,---,0.00,VWS V14.01,2013-04-08 06:12:00,
2013-04-08 02:17:00,32.4,29.2,30.02,WSW,250,2.0,5.0,88,0.00,,---,0.00,VWS V14.01,2013-04-08 06:17:00,
2013-04-08 02:22:00,32.4,29.2,30.02,WSW,250,3.0,5.0,88,0.00,,---,0.00,VWS V14.01,2013-04-08 06:22:00,
2013-04-08 02:27:00,32.4,29.0,30.02,WSW,250,4.0,5.0,87,0.00,,---,0.00,VWS V14.01,2013-04-08 06:27:00,
2013-04-08 02:30:00,32.4,29.0,30.02,WSW,250,2.0,5.0,87,0.00,,---,0.00,VWS V15.00,2013-04-08 06:30:00,
2013-04-08 02:32:00,32.4,29.0,30.02,WSW,250,3.0,4.0,87,0.00,,---,0.00,VWS V14.01,2013-04-08 06:32:00,
2013-04-08 02:38:00,32.4,29.0,30.02,WSW,250,3.0,4.0,87,0.00,,---,0.00,VWS V14.01,2013-04-08 06:38:00,
2013-04-08 02:43:00,32.4,29.0,30.01,WSW,250,2.0,4.0,87,0.00,,---,0.00,VWS V14.01,2013-04-08 06:43:00,
2013-04-08 02:48:00,32.3,28.9,30.01,WSW,250,2.0,4.0,87,0.00,,---,0.00,VWS V14.01,2013-04-08 06:48:00,
2013-04-08 02:53:00,32.3,28.9,30.01,WSW,250,2.0,4.0,87,0.00,,---,0.00,VWS V14.01,2013-04-08 06:53:00,
2013-04-08 02:58:00,32.3,28.9,30.01,WSW,250,4.0,4.0,87,0.00,,---,0.00,VWS V14.01,2013-04-08 06:58:00,
2013-04-08 03:00:00,32.3,28.9,30.01,WSW,250,2.0,4.0,87,0.00,,---,0.00,VWS V15.00,2013-04-08 07:00:00,
2013-04-08 03:03:00,32.3,28.9,30.01,WSW,250,3.0,4.0,87,0.00,,---,0.00,VWS V14.01,2013-04-08 07:03:00,
2013-04-08 03:08:00,32.3,28.9,30.01,SW,235,4.0,4.0,87,0.00,,---,0.00,VWS V14.01,2013-04-08 07:08:00,
2013-04-08 03:13:00,32.2,28.8,30.01,SW,230,3.0,5.0,87,0.00,,---,0.00,VWS V14.01,2013-04-08 07:13:00,
2013-04-08 03:18:00,32.1,29.0,30.01,SSW,200,3.0,6.0,88,0.00,,---,0.00,VWS V14.01,2013-04-08 07:18:00,
2013-04-08 03:23:00,32.1,29.0,30.01,SSW,200,3.0,6.0,88,0.00,,---,0.00,VWS V14.01,2013-04-08 07:23:00,
2013-04-08 03:28:00,32.0,28.9,30.01,SSW,201,2.0,6.0,88,0.00,,---,0.00,VWS V14.01,2013-04-08 07:28:00,
2013-04-08 03:30:00,32.0,28.9,30.01,SSW,200,2.0,6.0,88,0.00,,---,0.00,VWS V15.00,2013-04-08 07:30:00,
2013-04-08 03:33:00,32.0,28.9,30.01,SSW,201,3.0,3.0,88,0.00,,---,0.00,VWS V14.01,2013-04-08 07:33:00,
2013-04-08 03:38:00,32.0,28.6,30.01,SSW,200,2.0,4.0,87,0.00,,---,0.00,VWS V14.01,2013-04-08 07:38:00,
2013-04-08 03:43:00,32.0,28.6,30.00,SSW,200,1.0,4.0,87,0.00,,---,0.00,VWS V14.01,2013-04-08 07:43:00,
2013-04-08 03:48:00,32.1,28.7,30.00,SSW,200,3.0,4.0,87,0.00,,---,0.00,VWS V14.01,2013-04-08 07:48:00,
2013-04-08 03:53:00,32.1,28.7,30.01,SSW,200,4.0,5.0,87,0.00,,---,0.00,VWS V14.01,2013-04-08 07:53:00,
2013-04-08 03:58:00,32.2,28.5,30.01,SSW,200,3.0,5.0,86,0.00,,---,0.00,VWS V14.01,2013-04-08 07:58:00,
2013-04-08 04:00:00,32.3,28.3,30.01,SSW,200,3.0,5.0,85,0.00,,---,0.00,VWS V15.00,2013-04-08 08:00:00,
2013-04-08 04:03:00,32.4,28.4,30.00,SSW,200,0.0,3.0,85,0.00,,---,0.00,VWS V14.01,2013-04-08 08:03:00,
2013-04-08 04:08:00,32.5,28.2,30.00,SSW,200,0.0,3.0,84,0.00,,---,0.00,VWS V14.01,2013-04-08 08:08:00,
2013-04-08 04:13:00,32.5,28.2,30.00,SSW,200,0.0,3.0,84,0.00,,---,0.00,VWS V14.01,2013-04-08 08:13:00,
2013-04-08 04:18:00,32.6,28.3,30.00,SSW,201,0.0,3.0,84,0.00,,---,0.00,VWS V14.01,2013-04-08 08:18:00,
2013-04-08 04:23:00,32.6,28.0,30.01,SSW,200,0.0,3.0,83,0.00,,---,0.00,VWS V14.01,2013-04-08 08:23:00,
2013-04-08 04:29:00,32.7,28.1,30.01,SSW,201,0.0,3.0,83,0.00,,---,0.00,VWS V14.01,2013-04-08 08:29:00,
2013-04-08 04:30:00,32.7,28.1,30.01,SSW,200,0.0,3.0,83,0.00,,---,0.00,VWS V15.00,2013-04-08 08:30:00,
2013-04-08 04:34:00,32.7,28.1,30.01,SSW,200,0.0,0.0,83,0.00,,---,0.00,VWS V14.01,2013-04-08 08:34:00,
2013-04-08 04:39:00,32.8,28.2,30.01,SSW,200,0.0,0.0,83,0.00,,---,0.00,VWS V14.01,2013-04-08 08:39:00,
2013-04-08 04:44:00,32.8,28.2,30.02,SSW,201,0.0,0.0,83,0.00,,---,0.00,VWS V14.01,2013-04-08 08:44:00,
2013-04-08 04:49:00,32.8,28.2,30.01,SSW,200,0.0,0.0,83,0.00,,---,0.00,VWS V14.01,2013-04-08 08:49:00,
2013-04-08 04:54:00,32.9,28.3,30.02,SSW,201,0.0,1.0,83,0.00,,---,0.00,VWS V14.01,2013-04-08 08:54:00,
2013-04-08 04:59:00,32.7,28.1,30.02,SSW,200,0.0,2.0,83,0.00,,---,0.00,VWS V14.01,2013-04-08 08:59:00,
2013-04-08 05:00:00,32.7,28.1,30.02,SSW,200,0.0,2.0,83,0.00,,---,0.00,VWS V15.00,2013-04-08 09:00:00,
2013-04-08 05:04:00,32.8,28.2,30.02,SSW,200,0.0,0.0,83,0.00,,---,0.00,VWS V14.01,2013-04-08 09:04:00,
2013-04-08 05:09:00,32.9,28.3,30.02,SSW,201,0.0,2.0,83,0.00,,---,0.00,VWS V14.01,2013-04-08 09:09:00,
2013-04-08 05:14:00,32.9,28.3,30.01,SSW,200,0.0,2.0,83,0.00,,---,0.00,VWS V14.01,2013-04-08 09:14:00,
2013-04-08 05:19:00,32.8,28.2,30.01,SSW,201,4.0,5.0,83,0.00,,---,0.00,VWS V14.01,2013-04-08 09:19:00,
2013-04-08 05:24:00,32.7,28.4,30.02,SSW,200,0.0,5.0,84,0.00,,---,0.00,VWS V14.01,2013-04-08 09:24:00,
2013-04-08 05:29:00,32.6,28.3,30.02,SSW,200,3.0,5.0,84,0.00,,---,0.00,VWS V14.01,2013-04-08 09:29:00,
2013-04-08 05:30:00,32.6,28.3,30.02,SSW,200,2.0,5.0,84,0.00,,---,0.00,VWS V15.00,2013-04-08 09:30:00,
2013-04-08 05:34:00,32.5,28.2,30.02,SSW,200,1.0,3.0,84,0.00,,---,0.00,VWS V14.01,2013-04-08 09:34:00,
2013-04-08 05:39:00,32.4,28.1,30.02,SSW,200,4.0,6.0,84,0.00,,---,0.00,VWS V14.01,2013-04-08 09:39:00,
2013-04-08 05:44:00,32.3,28.6,30.02,SSW,200,4.0,6.0,86,0.00,,---,0.00,VWS V14.01,2013-04-08 09:44:00,
2013-04-08 05:49:00,32.1,28.7,30.02,South,183,5.0,6.0,87,0.00,,---,0.00,VWS V14.01,2013-04-08 09:49:00,
2013-04-08 05:55:00,31.9,28.8,30.02,ESE,117,6.0,8.0,88,0.00,,---,0.00,VWS V14.01,2013-04-08 09:55:00,
2013-04-08 06:00:00,31.7,28.6,30.02,ESE,117,4.0,8.0,88,0.00,,---,0.00,VWS V14.01,2013-04-08 10:00:00,
2013-04-08 06:05:00,31.6,28.7,30.02,ESE,117,4.0,6.0,89,0.00,,---,0.00,VWS V14.01,2013-04-08 10:05:00,
2013-04-08 06:10:00,31.5,28.6,30.02,ESE,117,4.0,6.0,89,0.00,,---,0.00,VWS V14.01,2013-04-08 10:10:00,
2013-04-08 06:15:00,31.5,28.6,30.02,ESE,111,6.0,7.0,89,0.00,,---,0.00,VWS V14.01,2013-04-08 10:15:00,
2013-04-08 06:20:00,31.4,28.8,30.02,ESE,111,2.0,7.0,90,0.00,,---,0.00,VWS V14.01,2013-04-08 10:20:00,
2013-04-08 06:25:00,31.4,28.8,30.02,ESE,111,4.0,7.0,90,0.00,,---,0.00,VWS V14.01,2013-04-08 10:25:00,
2013-04-08 06:30:00,31.4,28.8,30.02,ESE,111,4.0,7.0,90,0.00,,---,0.00,VWS V14.01,2013-04-08 10:30:00,
2013-04-08 06:35:00,31.4,28.8,30.02,ESE,111,4.0,6.0,90,0.00,,---,0.00,VWS V14.01,2013-04-08 10:35:00,
2013-04-08 06:40:00,31.4,28.8,30.02,ESE,111,1.0,6.0,90,0.00,,---,0.00,VWS V14.01,2013-04-08 10:40:00,
2013-04-08 06:45:00,31.4,28.8,30.02,ESE,111,2.0,6.0,90,0.00,,---,0.00,VWS V14.01,2013-04-08 10:45:00,
2013-04-08 06:50:00,31.4,28.8,30.03,ESE,111,0.0,6.0,90,0.00,,---,0.00,VWS V14.01,2013-04-08 10:50:00,
2013-04-08 06:55:00,31.4,28.8,30.02,ESE,111,1.0,6.0,90,0.00,,---,0.00,VWS V14.01,2013-04-08 10:55:00,
2013-04-08 07:00:00,31.4,28.8,30.02,ESE,111,0.0,6.0,90,0.00,,---,0.00,VWS V14.01,2013-04-08 11:00:00,
2013-04-08 07:05:00,31.5,28.9,30.02,ESE,111,0.0,3.0,90,0.00,,---,0.00,VWS V14.01,2013-04-08 11:05:00,
2013-04-08 07:10:00,31.5,28.9,30.02,ESE,111,2.0,3.0,90,0.00,,---,0.00,VWS V14.01,2013-04-08 11:10:00,
2013-04-08 07:15:00,31.5,28.9,30.02,ESE,111,0.0,6.0,90,0.00,,---,0.00,VWS V14.01,2013-04-08 11:15:00,
2013-04-08 07:20:00,31.6,29.0,30.02,ESE,111,0.0,6.0,90,0.00,,---,0.00,VWS V14.01,2013-04-08 11:20:00,
2013-04-08 07:25:00,31.7,29.1,30.02,ESE,111,2.0,6.0,90,0.00,,---,0.00,VWS V14.01,2013-04-08 11:25:00,
2013-04-08 07:30:00,31.7,29.1,30.02,ESE,111,2.0,6.0,90,0.00,,---,0.00,VWS V14.01,2013-04-08 11:30:00,
2013-04-08 07:35:00,31.8,29.5,30.02,ESE,111,4.0,5.0,91,0.00,,---,0.00,VWS V14.01,2013-04-08 11:35:00,
2013-04-08 07:40:00,31.8,29.5,30.01,ESE,111,5.0,6.0,91,0.00,,---,0.00,VWS V14.01,2013-04-08 11:40:00,
2013-04-08 07:45:00,31.9,29.6,30.02,ESE,111,0.0,6.0,91,0.00,,---,0.00,VWS V14.01,2013-04-08 11:45:00,
2013-04-08 07:50:00,32.0,29.7,30.02,ESE,112,1.0,6.0,91,0.00,,---,0.00,VWS V14.01,2013-04-08 11:50:00,
2013-04-08 07:55:00,32.0,29.7,30.02,ESE,113,0.0,6.0,91,0.00,,---,0.00,VWS V14.01,2013-04-08 11:55:00,
2013-04-08 08:00:00,32.1,29.8,30.02,ESE,113,2.0,6.0,91,0.00,,---,0.00,VWS V14.01,2013-04-08 12:00:00,
2013-04-08 08:05:00,32.4,30.1,30.02,ESE,117,2.0,4.0,91,0.00,,---,0.00,VWS V14.01,2013-04-08 12:05:00,
2013-04-08 08:10:00,32.5,30.2,30.02,ESE,122,1.0,4.0,91,0.00,,---,0.00,VWS V14.01,2013-04-08 12:10:00,
2013-04-08 08:15:00,32.7,30.1,30.02,ESE,119,2.0,6.0,90,0.00,,---,0.00,VWS V14.01,2013-04-08 12:15:00,
2013-04-08 08:20:00,32.9,30.3,30.02,ESE,121,1.0,6.0,90,0.00,,---,0.00,VWS V14.01,2013-04-08 12:20:00,
2013-04-08 08:25:00,33.1,30.5,30.01,ESE,122,3.0,6.0,90,0.00,,---,0.00,VWS V14.01,2013-04-08 12:25:00,
2013-04-08 08:30:00,33.4,30.5,30.02,ESE,123,5.0,6.0,89,0.00,,---,0.00,VWS V14.01,2013-04-08 12:30:00,
2013-04-08 08:35:00,33.7,30.8,30.01,ESE,113,1.0,8.0,89,0.00,,---,0.00,VWS V14.01,2013-04-08 12:35:00,
2013-04-08 08:41:00,34.0,30.8,30.01,ESE,115,1.0,8.0,88,0.00,,---,0.00,VWS V14.01,2013-04-08 12:41:00,
2013-04-08 08:46:00,34.3,31.1,30.02,ESE,115,0.0,8.0,88,0.00,,---,0.00,VWS V14.01,2013-04-08 12:46:00,
2013-04-08 08:51:00,34.6,31.1,30.02,SE,127,3.0,8.0,87,0.00,,---,0.00,VWS V14.01,2013-04-08 12:51:00,
2013-04-08 08:56:00,34.8,31.0,30.01,ESE,111,8.0,10.0,86,0.00,,---,0.00,VWS V14.01,2013-04-08 12:56:00,
2013-04-08 09:00:00,35.1,31.0,30.01,ESE,121,0.0,10.0,85,0.00,,---,0.00,VWS V15.00,2013-04-08 13:00:00,
2013-04-08 09:01:00,35.1,31.0,30.01,ESE,121,0.0,10.0,85,0.00,,---,0.00,VWS V14.01,2013-04-08 13:01:00,
2013-04-08 09:06:00,35.3,31.2,30.01,SSE,152,7.0,10.0,85,0.00,,---,0.00,VWS V14.01,2013-04-08 13:06:00,
2013-04-08 09:11:00,35.4,31.1,30.01,SE,133,4.0,10.0,84,0.00,,---,0.00,VWS V14.01,2013-04-08 13:11:00,
2013-04-08 09:16:00,35.5,31.1,30.01,ESE,123,4.0,11.0,84,0.00,,---,0.00,VWS V14.01,2013-04-08 13:16:00,
2013-04-08 09:21:00,35.6,31.2,30.01,ESE,119,5.0,13.0,84,0.00,,---,0.00,VWS V14.01,2013-04-08 13:21:00,
2013-04-08 09:26:00,35.8,31.1,30.01,SE,130,3.0,13.0,83,0.00,,---,0.00,VWS V14.01,2013-04-08 13:26:00,
2013-04-08 09:30:00,36.0,31.4,30.01,SE,140,2.0,13.0,83,0.00,,---,0.00,VWS V15.00,2013-04-08 13:30:00,
2013-04-08 09:31:00,36.1,31.5,30.01,SE,126,1.0,4.0,83,0.00,,---,0.00,VWS V14.01,2013-04-08 13:31:00,
2013-04-08 09:37:00,36.4,31.7,30.01,ESE,115,4.0,9.0,83,0.00,,---,0.00,VWS V14.01,2013-04-08 13:37:00,
2013-04-08 09:42:00,36.6,31.6,30.01,ESE,118,7.0,11.0,82,0.00,,---,0.00,VWS V14.01,2013-04-08 13:42:00,
2013-04-08 09:47:00,36.8,31.5,30.01,ESE,123,5.0,11.0,81,0.00,,---,0.00,VWS V14.01,2013-04-08 13:47:00,
2013-04-08 09:52:00,36.9,31.6,30.01,ESE,107,7.0,11.0,81,0.00,,---,0.00,VWS V14.01,2013-04-08 13:52:00,
2013-04-08 09:57:00,37.2,31.3,30.00,SE,134,3.0,11.0,79,0.00,,---,0.00,VWS V14.01,2013-04-08 13:57:00,
2013-04-08 10:00:00,37.4,31.8,30.00,SE,131,3.0,12.0,80,0.00,,---,0.00,VWS V15.00,2013-04-08 14:00:00,
2013-04-08 10:02:00,37.4,31.5,30.00,ESE,122,4.0,8.0,79,0.00,,---,0.00,VWS V14.01,2013-04-08 14:02:00,
2013-04-08 10:07:00,37.7,31.5,30.00,ESE,105,4.0,12.0,78,0.00,,---,0.00,VWS V14.01,2013-04-08 14:07:00,
2013-04-08 10:12:00,37.9,31.4,30.00,SE,129,6.0,12.0,77,0.00,,---,0.00,VWS V14.01,2013-04-08 14:12:00,
2013-04-08 10:17:00,38.1,31.5,29.99,SE,134,4.0,13.0,77,0.00,,---,0.00,VWS V14.01,2013-04-08 14:17:00,
2013-04-08 10:22:00,38.2,31.3,29.99,ESE,114,13.0,13.0,76,0.00,,---,0.00,VWS V14.01,2013-04-08 14:22:00,
2013-04-08 10:27:00,38.2,31.3,29.98,ESE,117,10.0,15.0,76,0.00,,---,0.00,VWS V14.01,2013-04-08 14:27:00,
2013-04-08 10:30:00,38.2,31.3,29.98,ESE,117,4.0,15.0,76,0.00,,---,0.00,VWS V15.00,2013-04-08 14:30:00,
2013-04-08 10:32:00,38.2,31.3,29.98,ESE,105,8.0,10.0,76,0.00,,---,0.00,VWS V14.01,2013-04-08 14:32:00,
2013-04-08 10:37:00,38.6,31.4,29.99,SE,125,8.0,12.0,75,0.00,,---,0.00,VWS V14.01,2013-04-08 14:37:00,
2013-04-08 10:42:00,38.5,31.3,29.99,SE,125,3.0,12.0,75,0.00,,---,0.00,VWS V14.01,2013-04-08 14:42:00,
2013-04-08 10:47:00,38.5,31.3,29.99,SE,135,4.0,12.0,75,0.00,,---,0.00,VWS V14.01,2013-04-08 14:47:00,
2013-04-08 10:52:00,38.5,31.3,29.99,ESE,119,3.0,14.0,75,0.00,,---,0.00,VWS V14.01,2013-04-08 14:52:00,
2013-04-08 10:58:00,38.6,31.4,29.99,ESE,122,8.0,14.0,75,0.00,,---,0.00,VWS V14.01,2013-04-08 14:58:00,
2013-04-08 11:00:00,38.6,31.0,29.99,SE,133,3.0,14.0,74,0.00,,---,0.00,VWS V15.00,2013-04-08 15:00:00,
2013-04-08 11:03:00,38.6,31.0,29.99,ESE,117,4.0,8.0,74,0.00,,---,0.00,VWS V14.01,2013-04-08 15:03:00,
2013-04-08 11:08:00,38.6,31.0,29.99,ESE,122,7.0,16.0,74,0.00,,---,0.00,VWS V14.01,2013-04-08 15:08:00,
2013-04-08 11:13:00,38.6,31.4,29.99,ESE,123,6.0,16.0,75,0.00,,---,0.00,VWS V14.01,2013-04-08 15:13:00,
2013-04-08 11:18:00,38.6,31.4,29.98,ESE,104,10.0,16.0,75,0.00,,---,0.00,VWS V14.01,2013-04-08 15:18:00,
2013-04-08 11:23:00,38.8,31.6,29.98,SSE,160,6.0,16.0,75,0.00,,---,0.00,VWS V14.01,2013-04-08 15:23:00,
2013-04-08 11:28:00,38.8,31.6,29.97,SE,139,8.0,16.0,75,0.00,,---,0.00,VWS V14.01,2013-04-08 15:28:00,
2013-04-08 11:30:00,38.7,31.1,29.97,SE,127,11.0,16.0,74,0.00,,---,0.00,VWS V15.00,2013-04-08 15:30:00,
2013-04-08 11:33:00,38.7,31.1,29.97,SE,138,12.0,12.0,74,0.00,,---,0.00,VWS V14.01,2013-04-08 15:33:00,
2013-04-08 11:38:00,38.8,31.2,29.97,SE,137,4.0,18.0,74,0.00,,---,0.00,VWS V14.01,2013-04-08 15:38:00,
2013-04-08 11:43:00,39.0,31.4,29.96,ESE,113,7.0,18.0,74,0.00,,---,0.00,VWS V14.01,2013-04-08 15:43:00,
2013-04-08 11:48:00,39.0,31.4,29.96,SE,125,12.0,18.0,74,0.00,,---,0.00,VWS V14.01,2013-04-08 15:48:00,
2013-04-08 11:53:00,38.9,31.0,29.96,SE,127,9.0,18.0,73,0.00,,---,0.00,VWS V14.01,2013-04-08 15:53:00,
2013-04-08 11:58:00,38.9,31.0,29.96,ESE,121,11.0,18.0,73,0.00,,---,0.00,VWS V14.01,2013-04-08 15:58:00,
2013-04-08 12:00:00,38.9,31.0,29.95,ESE,105,12.0,18.0,73,0.00,,---,0.00,VWS V15.00,2013-04-08 16:00:00,
2013-04-08 12:03:00,38.9,31.0,29.95,ESE,122,6.0,13.0,73,0.00,,---,0.00,VWS V14.01,2013-04-08 16:03:00,
2013-04-08 12:08:00,38.9,31.0,29.95,SSE,153,6.0,17.0,73,0.00,,---,0.00,VWS V14.01,2013-04-08 16:08:00,
2013-04-08 12:13:00,38.9,31.0,29.95,SE,133,4.0,17.0,73,0.00,,---,0.00,VWS V14.01,2013-04-08 16:13:00,
2013-04-08 12:18:00,38.8,30.9,29.95,SE,126,6.0,17.0,73,0.00,,---,0.00,VWS V14.01,2013-04-08 16:18:00,
2013-04-08 12:23:00,39.0,31.4,29.95,SSE,164,12.0,17.0,74,0.00,,---,0.00,VWS V14.01,2013-04-08 16:23:00,
2013-04-08 12:28:00,38.9,31.3,29.95,ESE,122,8.0,17.0,74,0.00,,---,0.00,VWS V14.01,2013-04-08 16:28:00,
2013-04-08 12:30:00,38.8,31.2,29.95,SE,131,6.0,17.0,74,0.00,,---,0.00,VWS V15.00,2013-04-08 16:30:00,
2013-04-08 12:33:00,38.9,31.3,29.95,SSE,158,4.0,14.0,74,0.00,,---,0.00,VWS V14.01,2013-04-08 16:33:00,
2013-04-08 12:38:00,38.9,31.3,29.95,ESE,121,17.0,17.0,74,0.00,,---,0.00,VWS V14.01,2013-04-08 16:38:00,
2013-04-08 12:43:00,38.8,31.2,29.95,ESE,119,10.0,19.0,74,0.00,,---,0.00,VWS V14.01,2013-04-08 16:43:00,
2013-04-08 12:48:00,38.9,31.3,29.95,SSE,150,4.0,19.0,74,0.00,,---,0.00,VWS V14.01,2013-04-08 16:48:00,
2013-04-08 12:53:00,39.0,31.4,29.94,ESE,122,6.0,19.0,74,0.00,,---,0.00,VWS V14.01,2013-04-08 16:53:00,
2013-04-08 12:58:00,39.1,31.5,29.94,ESE,121,1.0,19.0,74,0.00,,---,0.00,VWS V14.01,2013-04-08 16:58:00,
2013-04-08 13:00:00,39.1,31.5,29.94,SE,128,9.0,19.0,74,0.00,,---,0.00,VWS V15.00,2013-04-08 17:00:00,
2013-04-08 13:03:00,39.1,31.5,29.94,ESE,119,15.0,20.0,74,0.00,,---,0.00,VWS V14.01,2013-04-08 17:03:00,
2013-04-08 13:08:00,38.9,31.0,29.93,ESE,123,10.0,20.0,73,0.00,,---,0.00,VWS V14.01,2013-04-08 17:08:00,
2013-04-08 13:13:00,38.9,31.3,29.93,SE,142,4.0,20.0,74,0.00,,---,0.00,VWS V14.01,2013-04-08 17:13:00,
2013-04-08 13:18:00,38.9,31.0,29.93,SE,124,8.0,20.0,73,0.00,,---,0.00,VWS V14.01,2013-04-08 17:18:00,
2013-04-08 13:24:00,39.1,31.5,29.92,SSE,157,7.0,20.0,74,0.00,,---,0.00,VWS V14.01,2013-04-08 17:24:00,
2013-04-08 13:29:00,39.3,31.7,29.92,SSE,157,4.0,20.0,74,0.00,,---,0.00,VWS V14.01,2013-04-08 17:29:00,
2013-04-08 13:34:00,39.3,31.4,29.92,SE,142,4.0,9.0,73,0.00,,---,0.00,VWS V14.01,2013-04-08 17:34:00,
2013-04-08 13:39:00,39.3,31.4,29.92,ESE,110,12.0,15.0,73,0.00,,---,0.00,VWS V14.01,2013-04-08 17:39:00,
2013-04-08 13:44:00,39.2,31.3,29.92,SE,138,3.0,19.0,73,0.00,,---,0.00,VWS V14.01,2013-04-08 17:44:00,
2013-04-08 13:49:00,39.1,31.2,29.92,SE,127,11.0,19.0,73,0.00,,---,0.00,VWS V14.01,2013-04-08 17:49:00,
2013-04-08 13:54:00,39.1,31.2,29.92,SE,127,11.0,19.0,73,0.00,,---,0.00,VWS V14.01,2013-04-08 17:54:00,
2013-04-08 13:59:00,39.2,31.3,29.92,SE,124,8.0,20.0,73,0.00,,---,0.00,VWS V14.01,2013-04-08 17:59:00,
2013-04-08 14:00:00,39.2,31.3,29.93,SE,138,4.0,20.0,73,0.00,,---,0.00,VWS V15.00,2013-04-08 18:00:00,
2013-04-08 14:04:00,39.2,31.3,29.93,SE,138,6.0,18.0,73,0.00,,---,0.00,VWS V14.01,2013-04-08 18:04:00,
2013-04-08 14:09:00,39.1,31.2,29.93,SSE,148,6.0,18.0,73,0.00,,---,0.00,VWS V14.01,2013-04-08 18:09:00,
2013-04-08 14:14:00,39.0,31.4,29.93,ESE,113,13.0,19.0,74,0.00,,---,0.00,VWS V14.01,2013-04-08 18:14:00,
2013-04-08 14:19:00,39.0,31.4,29.93,SSE,151,7.0,19.0,74,0.00,,---,0.00,VWS V14.01,2013-04-08 18:19:00,
2013-04-08 14:24:00,39.1,31.5,29.93,SE,145,4.0,19.0,74,0.00,,---,0.00,VWS V14.01,2013-04-08 18:24:00,
2013-04-08 14:29:00,39.1,31.5,29.93,SSE,158,9.0,19.0,74,0.00,,---,0.00,VWS V14.01,2013-04-08 18:29:00,
2013-04-08 14:30:00,39.1,31.5,29.93,SSE,165,8.0,19.0,74,0.00,,---,0.00,VWS V15.00,2013-04-08 18:30:00,
2013-04-08 14:34:00,39.1,31.5,29.92,ESE,117,2.0,10.0,74,0.00,,---,0.00,VWS V14.01,2013-04-08 18:34:00,
2013-04-08 14:39:00,39.2,31.6,29.92,ESE,119,6.0,14.0,74,0.00,,---,0.00,VWS V14.01,2013-04-08 18:39:00,
2013-04-08 14:44:00,39.3,32.0,29.92,East,94,10.0,14.0,75,0.00,,---,0.00,VWS V14.01,2013-04-08 18:44:00,
2013-04-08 14:50:00,39.3,32.0,29.92,SE,135,3.0,14.0,75,0.00,,---,0.00,VWS V14.01,2013-04-08 18:50:00,
2013-04-08 14:55:00,39.1,31.5,29.92,ESE,110,8.0,14.0,74,0.00,,---,0.00,VWS V14.01,2013-04-08 18:55:00,
2013-04-08 15:00:00,39.0,32.1,29.92,ESE,115,7.0,14.0,76,0.00,,---,0.00,VWS V14.01,2013-04-08 19:00:00,
2013-04-08 15:05:00,38.8,31.9,29.92,SE,144,5.0,11.0,76,0.00,,---,0.00,VWS V14.01,2013-04-08 19:05:00,
2013-04-08 15:10:00,38.8,31.9,29.91,SE,146,16.0,16.0,76,0.00,,---,0.00,VWS V14.01,2013-04-08 19:10:00,
2013-04-08 15:15:00,38.5,31.6,29.91,ESE,122,5.0,16.0,76,0.00,,---,0.00,VWS V14.01,2013-04-08 19:15:00,
2013-04-08 15:20:00,38.3,31.4,29.91,SSE,147,9.0,18.0,76,0.00,,---,0.00,VWS V14.01,2013-04-08 19:20:00,
2013-04-08 15:25:00,38.2,31.3,29.91,SE,143,3.0,18.0,76,0.00,,---,0.00,VWS V14.01,2013-04-08 19:25:00,
2013-04-08 15:30:00,38.2,31.6,29.90,SE,144,1.0,18.0,77,0.00,,---,0.00,VWS V14.01,2013-04-08 19:30:00,
2013-04-08 15:35:00,38.3,31.7,29.90,SE,133,2.0,13.0,77,0.00,,---,0.00,VWS V14.01,2013-04-08 19:35:00,
2013-04-08 15:40:00,38.3,31.7,29.89,SE,140,4.0,18.0,77,0.00,,---,0.00,VWS V14.01,2013-04-08 19:40:00,
2013-04-08 15:45:00,38.0,32.1,29.89,ESE,102,7.0,18.0,79,0.00,,---,0.00,VWS V14.01,2013-04-08 19:45:00,
2013-04-08 15:50:00,37.4,31.8,29.89,East,94,6.0,18.0,80,0.00,,---,0.00,VWS V14.01,2013-04-08 19:50:00,
2013-04-08 15:55:00,37.0,31.7,29.88,ESE,102,7.0,18.0,81,0.00,,---,0.00,VWS V14.01,2013-04-08 19:55:00,
2013-04-08 16:00:00,36.8,31.8,29.88,ESE,116,9.0,18.0,82,0.00,,---,0.00,VWS V15.00,2013-04-08 20:00:00,
2013-04-08 16:01:00,36.8,31.8,29.88,East,96,11.0,18.0,82,0.00,,---,0.00,VWS V14.01,2013-04-08 20:01:00,
2013-04-08 16:06:00,36.5,31.8,29.87,ESE,108,12.0,16.0,83,0.00,,---,0.00,VWS V14.01,2013-04-08 20:06:00,
2013-04-08 16:11:00,36.5,31.8,29.87,East,97,9.0,18.0,83,0.00,,---,0.00,VWS V14.01,2013-04-08 20:11:00,
2013-04-08 16:16:00,36.5,32.1,29.87,ESE,123,8.0,18.0,84,0.00,,---,0.00,VWS V14.01,2013-04-08 20:16:00,
2013-04-08 16:22:00,36.5,32.1,29.87,East,101,6.0,18.0,84,0.00,,---,0.00,VWS V14.01,2013-04-08 20:22:00,
2013-04-08 16:27:00,36.4,32.0,29.87,ESE,121,13.0,18.0,84,0.00,,---,0.00,VWS V14.01,2013-04-08 20:27:00,
2013-04-08 16:30:00,36.3,31.6,29.87,East,91,8.0,18.0,83,0.00,,---,0.00,VWS V15.00,2013-04-08 20:30:00,
2013-04-08 16:32:00,36.2,31.8,29.87,East,97,8.0,13.0,84,0.00,,---,0.00,VWS V14.01,2013-04-08 20:32:00,
2013-04-08 16:37:00,36.0,31.6,29.86,ESE,106,10.0,17.0,84,0.00,,---,0.00,VWS V14.01,2013-04-08 20:37:00,
2013-04-08 16:42:00,35.9,31.5,29.86,ESE,113,16.0,17.0,84,0.00,,---,0.00,VWS V14.01,2013-04-08 20:42:00,
2013-04-08 16:47:00,35.8,31.7,29.86,ESE,119,8.0,17.0,85,0.00,,---,0.00,VWS V14.01,2013-04-08 20:47:00,
2013-04-08 16:52:00,35.7,31.6,29.86,ESE,116,6.0,22.0,85,0.00,,---,0.00,VWS V14.01,2013-04-08 20:52:00,
2013-04-08 16:57:00,35.6,31.5,29.86,East,91,12.0,22.0,85,0.00,,---,0.00,VWS V14.01,2013-04-08 20:57:00,
2013-04-08 17:00:00,35.5,31.5,29.86,ESE,108,16.0,22.0,85,0.00,,---,0.00,VWS V15.00,2013-04-08 21:00:00,
2013-04-08 17:02:00,35.5,31.5,29.86,ESE,123,14.0,17.0,85,0.00,,---,0.00,VWS V14.01,2013-04-08 21:02:00,
2013-04-08 17:07:00,35.3,31.2,29.86,ESE,119,4.0,19.0,85,0.00,,---,0.00,VWS V14.01,2013-04-08 21:07:00,
2013-04-08 17:12:00,35.3,31.2,29.86,ESE,106,6.0,19.0,85,0.00,,---,0.00,VWS V14.01,2013-04-08 21:12:00,
2013-04-08 17:17:00,35.2,31.4,29.86,ESE,117,13.0,24.0,86,0.00,,---,0.00,VWS V14.01,2013-04-08 21:17:00,
2013-04-08 17:22:00,35.0,31.2,29.86,East,99,5.0,24.0,86,0.00,,---,0.00,VWS V14.01,2013-04-08 21:22:00,
2013-04-08 17:27:00,34.8,31.3,29.86,ESE,111,16.0,24.0,87,0.00,,---,0.00,VWS V14.01,2013-04-08 21:27:00,
2013-04-08 17:30:00,34.8,31.6,29.86,East,91,11.0,24.0,88,0.00,,---,0.00,VWS V15.00,2013-04-08 21:30:00,
2013-04-08 17:32:00,34.7,31.5,29.85,ESE,110,11.0,13.0,88,0.00,,---,0.00,VWS V14.01,2013-04-08 21:32:00,
2013-04-08 17:37:00,34.6,31.7,29.86,ESE,105,13.0,21.0,89,0.01,,---,0.01,VWS V14.01,2013-04-08 21:37:00,
2013-04-08 17:43:00,34.4,31.5,29.86,ESE,115,14.0,22.0,89,0.03,,---,0.03,VWS V14.01,2013-04-08 21:43:00,
2013-04-08 17:48:00,34.3,31.7,29.86,ESE,105,15.0,24.0,90,0.04,,---,0.04,VWS V14.01,2013-04-08 21:48:00,
2013-04-08 17:53:00,34.3,31.7,29.86,ESE,110,18.0,24.0,90,0.04,,---,0.04,VWS V14.01,2013-04-08 21:53:00,
2013-04-08 17:58:00,34.2,31.6,29.86,East,101,16.0,24.0,90,0.05,,---,0.05,VWS V14.01,2013-04-08 21:58:00,
2013-04-08 18:00:00,34.3,32.0,29.86,ESE,104,12.0,24.0,91,0.05,,---,0.05,VWS V15.00,2013-04-08 22:00:00,
2013-04-08 18:03:00,34.3,32.0,29.87,East,99,15.0,18.0,91,0.06,,---,0.06,VWS V14.01,2013-04-08 22:03:00,
2013-04-08 18:08:00,34.3,32.0,29.87,East,89,6.0,18.0,91,0.06,,---,0.06,VWS V14.01,2013-04-08 22:08:00,
2013-04-08 18:13:00,34.3,31.7,29.87,ESE,119,10.0,20.0,90,0.07,,---,0.07,VWS V14.01,2013-04-08 22:13:00,
2013-04-08 18:18:00,34.3,32.0,29.88,ESE,105,10.0,20.0,91,0.07,,---,0.07,VWS V14.01,2013-04-08 22:18:00,
2013-04-08 18:23:00,34.4,32.0,29.88,East,91,8.0,21.0,91,0.08,,---,0.08,VWS V14.01,2013-04-08 22:23:00,
2013-04-08 18:28:00,34.5,32.2,29.88,ESE,122,9.0,21.0,91,0.08,,---,0.08,VWS V14.01,2013-04-08 22:28:00,
2013-04-08 18:30:00,34.5,32.2,29.88,East,91,14.0,21.0,91,0.09,,---,0.09,VWS V15.00,2013-04-08 22:30:00,
2013-04-08 18:33:00,34.5,32.2,29.88,ESE,109,6.0,15.0,91,0.09,,---,0.09,VWS V14.01,2013-04-08 22:33:00,
2013-04-08 18:38:00,34.6,32.0,29.88,ESE,116,8.0,18.0,90,0.09,,---,0.09,VWS V14.01,2013-04-08 22:38:00,
2013-04-08 18:43:00,34.7,32.1,29.88,ESE,105,10.0,18.0,90,0.10,,---,0.10,VWS V14.01,2013-04-08 22:43:00,
2013-04-08 18:48:00,34.7,32.1,29.89,East,100,10.0,18.0,90,0.12,,---,0.12,VWS V14.01,2013-04-08 22:48:00,
2013-04-08 18:53:00,34.8,32.2,29.89,ESE,109,6.0,18.0,90,0.13,,---,0.13,VWS V14.01,2013-04-08 22:53:00,
2013-04-08 18:58:00,34.7,32.3,29.89,East,94,7.0,18.0,91,0.16,,---,0.16,VWS V14.01,2013-04-08 22:58:00,
2013-04-08 19:00:00,34.6,32.2,29.89,ESE,106,12.0,18.0,91,0.19,,---,0.19,VWS V15.00,2013-04-08 23:00:00,
2013-04-08 19:03:00,34.6,32.2,29.89,ESE,102,4.0,12.0,91,0.15,,---,0.20,VWS V14.01,2013-04-08 23:03:00,
2013-04-08 19:08:00,34.6,32.2,29.89,ESE,117,5.0,12.0,91,0.19,,---,0.24,VWS V14.01,2013-04-08 23:08:00,
2013-04-08 19:13:00,34.6,32.5,29.89,ESE,107,5.0,13.0,92,0.24,,---,0.29,VWS V14.01,2013-04-08 23:13:00,
2013-04-08 19:18:00,34.6,32.5,29.89,East,96,8.0,14.0,92,0.27,,---,0.32,VWS V14.01,2013-04-08 23:18:00,
2013-04-08 19:23:00,34.5,32.4,29.89,ESE,107,7.0,14.0,92,0.30,,---,0.35,VWS V14.01,2013-04-08 23:23:00,
2013-04-08 19:28:00,34.5,32.4,29.89,East,96,8.0,14.0,92,0.33,,---,0.38,VWS V14.01,2013-04-08 23:28:00,
2013-04-08 19:30:00,34.4,32.3,29.89,ENE,72,5.0,14.0,92,0.34,,---,0.39,VWS V15.00,2013-04-08 23:30:00,
2013-04-08 19:33:00,34.4,32.6,29.89,ESE,104,10.0,10.0,93,0.31,,---,0.40,VWS V14.01,2013-04-08 23:33:00,
2013-04-08 19:38:00,34.3,32.5,29.90,East,94,2.0,12.0,93,0.34,,---,0.43,VWS V14.01,2013-04-08 23:38:00,
2013-04-08 19:43:00,34.2,32.4,29.90,East,98,5.0,12.0,93,0.35,,---,0.44,VWS V14.01,2013-04-08 23:43:00,
2013-04-08 19:48:00,34.2,32.4,29.90,East,83,5.0,12.0,93,0.37,,---,0.46,VWS V14.01,2013-04-08 23:48:00,
2013-04-08 19:53:00,34.2,32.7,29.90,East,83,8.0,12.0,94,0.38,,---,0.47,VWS V14.01,2013-04-08 23:53:00,
2013-04-08 19:58:00,34.2,32.7,29.90,ENE,78,3.0,12.0,94,0.40,,---,0.49,VWS V14.01,2013-04-08 23:58:00,
2013-04-08 20:00:00,34.2,32.7,29.90,East,83,7.0,12.0,94,0.41,,---,0.50,VWS V15.00,2013-04-09 00:00:00,
2013-04-08 20:03:00,34.2,32.7,29.90,East,83,5.0,8.0,94,0.32,,---,0.51,VWS V14.01,2013-04-09 00:03:00,
2013-04-08 20:08:00,34.1,32.6,29.90,ENE,75,3.0,8.0,94,0.36,,---,0.55,VWS V14.01,2013-04-09 00:08:00,
2013-04-08 20:13:00,34.1,32.6,29.90,East,92,5.0,8.0,94,0.37,,---,0.56,VWS V14.01,2013-04-09 00:13:00,
2013-04-08 20:18:00,34.0,32.5,29.90,East,86,6.0,8.0,94,0.39,,---,0.58,VWS V14.01,2013-04-09 00:18:00,
2013-04-08 20:23:00,33.9,32.4,29.90,East,83,4.0,8.0,94,0.42,,---,0.61,VWS V14.01,2013-04-09 00:23:00,
2013-04-08 20:29:00,33.9,32.6,29.90,East,81,3.0,8.0,95,0.43,,---,0.62,VWS V14.01,2013-04-09 00:29:00,
2013-04-08 20:30:00,33.9,32.6,29.90,ENE,75,4.0,8.0,95,0.44,,---,0.63,VWS V15.00,2013-04-09 00:30:00,
2013-04-08 20:34:00,33.9,32.6,29.91,ENE,78,8.0,8.0,95,0.25,,---,0.64,VWS V14.01,2013-04-09 00:34:00,
2013-04-08 20:39:00,33.9,32.6,29.91,ENE,67,4.0,9.0,95,0.26,,---,0.65,VWS V14.01,2013-04-09 00:39:00,
2013-04-08 20:44:00,33.9,32.6,29.91,East,79,5.0,9.0,95,0.28,,---,0.67,VWS V14.01,2013-04-09 00:44:00,
2013-04-08 20:49:00,34.0,32.7,29.91,ENE,75,7.0,9.0,95,0.29,,---,0.68,VWS V14.01,2013-04-09 00:49:00,
2013-04-08 20:54:00,33.9,32.6,29.91,ENE,73,2.0,9.0,95,0.30,,---,0.69,VWS V14.01,2013-04-09 00:54:00,
2013-04-08 21:00:00,34.0,32.7,29.91,East,92,1.0,9.0,95,0.30,,---,0.69,VWS V14.01,2013-04-09 01:00:00,
2013-04-08 21:05:00,33.9,32.6,29.91,ENE,76,5.0,7.0,95,0.19,,---,0.69,VWS V14.01,2013-04-09 01:05:00,
2013-04-08 21:10:00,33.9,32.6,29.91,ENE,75,3.0,7.0,95,0.19,,---,0.69,VWS V14.01,2013-04-09 01:10:00,
2013-04-08 21:15:00,33.9,32.6,29.91,ENE,70,4.0,9.0,95,0.20,,---,0.70,VWS V14.01,2013-04-09 01:15:00,
2013-04-08 21:20:00,33.9,32.9,29.91,ENE,76,5.0,9.0,96,0.20,,---,0.70,VWS V14.01,2013-04-09 01:20:00,
2013-04-08 21:25:00,33.9,32.9,29.91,ENE,75,7.0,9.0,96,0.20,,---,0.70,VWS V14.01,2013-04-09 01:25:00,
2013-04-08 21:30:00,33.9,32.9,29.91,East,81,7.0,9.0,96,0.20,,---,0.70,VWS V14.01,2013-04-09 01:30:00,
2013-04-08 21:35:00,33.9,32.9,29.91,ESE,102,6.0,8.0,96,0.07,,---,0.70,VWS V14.01,2013-04-09 01:35:00,
2013-04-08 21:40:00,33.9,32.9,29.91,East,88,7.0,9.0,96,0.07,,---,0.70,VWS V14.01,2013-04-09 01:40:00,
2013-04-08 21:45:00,33.9,32.9,29.91,East,93,4.0,9.0,96,0.07,,---,0.70,VWS V14.01,2013-04-09 01:45:00,
2013-04-08 21:50:00,33.8,32.8,29.91,East,86,4.0,9.0,96,0.07,,---,0.70,VWS V14.01,2013-04-09 01:50:00,
2013-04-08 21:55:00,33.8,32.8,29.92,ENE,73,9.0,9.0,96,0.07,,---,0.70,VWS V14.01,2013-04-09 01:55:00,
2013-04-08 22:00:00,33.7,32.7,29.91,ENE,78,8.0,9.0,96,0.07,,---,0.70,VWS V14.01,2013-04-09 02:00:00,
2013-04-08 22:05:00,33.7,32.7,29.91,East,83,4.0,6.0,96,0.01,,---,0.70,VWS V14.01,2013-04-09 02:05:00,
2013-04-08 22:10:00,33.7,32.7,29.92,East,81,5.0,8.0,96,0.01,,---,0.70,VWS V14.01,2013-04-09 02:10:00,
2013-04-08 22:15:00,33.6,32.6,29.92,East,81,4.0,8.0,96,0.01,,---,0.70,VWS V14.01,2013-04-09 02:15:00,
2013-04-08 22:20:00,33.5,32.5,29.92,East,81,3.0,8.0,96,0.01,,---,0.70,VWS V14.01,2013-04-09 02:20:00,
2013-04-08 22:25:00,33.5,32.5,29.93,East,81,1.0,8.0,96,0.01,,---,0.70,VWS V14.01,2013-04-09 02:25:00,
2013-04-08 22:30:00,33.4,32.4,29.93,East,81,0.0,8.0,96,0.01,,---,0.70,VWS V14.01,2013-04-09 02:30:00,
2013-04-08 22:35:00,33.4,32.4,29.93,East,81,2.0,3.0,96,0.00,,---,0.70,VWS V14.01,2013-04-09 02:35:00,
2013-04-08 22:40:00,33.3,32.3,29.94,East,81,2.0,3.0,96,0.00,,---,0.70,VWS V14.01,2013-04-09 02:40:00,
2013-04-08 22:45:00,33.3,32.3,29.95,East,81,4.0,4.0,96,0.00,,---,0.70,VWS V14.01,2013-04-09 02:45:00,
2013-04-08 22:50:00,33.2,32.2,29.95,East,81,3.0,4.0,96,0.00,,---,0.70,VWS V14.01,2013-04-09 02:50:00,
2013-04-08 22:55:00,33.2,32.2,29.95,East,81,0.0,4.0,96,0.00,,---,0.70,VWS V14.01,2013-04-09 02:55:00,
2013-04-08 23:00:00,33.2,32.2,29.96,East,81,2.0,4.0,96,0.00,,---,0.70,VWS V14.01,2013-04-09 03:00:00,
2013-04-08 23:05:00,33.3,32.3,29.96,East,81,2.0,3.0,96,0.00,,---,0.70,VWS V14.01,2013-04-09 03:05:00,
2013-04-08 23:10:00,33.4,32.4,29.96,ENE,77,2.0,4.0,96,0.00,,---,0.70,VWS V14.01,2013-04-09 03:10:00,
2013-04-08 23:15:00,33.4,32.4,29.95,ENE,77,0.0,4.0,96,0.00,,---,0.70,VWS V14.01,2013-04-09 03:15:00,
2013-04-08 23:21:00,33.5,32.5,29.96,ENE,77,1.0,4.0,96,0.00,,---,0.70,VWS V14.01,2013-04-09 03:21:00,
2013-04-08 23:26:00,33.5,32.5,29.97,ENE,77,2.0,4.0,96,0.00,,---,0.70,VWS V14.01,2013-04-09 03:26:00,
2013-04-08 23:30:00,33.7,32.7,29.96,ENE,77,2.0,4.0,96,0.00,,---,0.70,VWS V15.00,2013-04-09 03:30:00,
2013-04-08 23:31:00,33.7,32.7,29.96,ENE,77,2.0,4.0,96,0.00,,---,0.70,VWS V14.01,2013-04-09 03:31:00,
2013-04-08 23:36:00,33.7,32.7,29.96,ENE,77,3.0,3.0,96,0.00,,---,0.70,VWS V14.01,2013-04-09 03:36:00,
2013-04-08 23:41:00,33.7,32.7,29.96,ENE,73,2.0,5.0,96,0.00,,---,0.70,VWS V14.01,2013-04-09 03:41:00,
2013-04-08 23:46:00,33.7,32.7,29.95,ENE,73,1.0,5.0,96,0.00,,---,0.70,VWS V14.01,2013-04-09 03:46:00,
2013-04-08 23:51:00,33.8,32.8,29.96,ENE,73,1.0,5.0,96,0.00,,---,0.70,VWS V14.01,2013-04-09 03:51:00,
2013-04-08 23:56:00,33.8,32.8,29.97,ENE,73,3.0,5.0,96,0.00,,---,0.70,VWS V14.01,2013-04-09 03:56:00,